Voltar ao catálogo

SL-12 R/B

AUX MOTOR

AtivoHEO
NORAD 36116·ROCKET BODY·🇷🇺 Russia

Lançado Dec 14, 2009 de Baikonur Cosmodrome

Loading…

Próximas Passagens (próximas 24 horas)

TLE

AtualizadoSource: Space-Track

Época: Sep 13, 2026, 18:24 UTC

1 36116U 09070F   26256.76713507 -.00000043  00000-0 -47406-3 0  9993
2 36116  64.9782 174.2403 5574929 295.7503  17.8196  4.35655714104892

Acompanhe SL-12 R/B em tempo real com AllMySat

Download on the App Store